K6OUA-11 Weather Reports


time (UTC)temp
C
wind
direction
speed
KPH
gust
KPH
rain 1hr
cm
rain 24hr
cm
rain mn
cm
humidity
%
barometer
mb
20260905115240 15 87 0.0 0.0 0.00 0.00 0.00 91
20260905114836 15 87 0.0 0.0 0.00 0.00 0.00 91
20260905114634 15 87 0.0 0.0 0.00 0.00 0.00 91
20260905114433 15 87 0.0 0.0 0.00 0.00 0.00 91
20260905114231 15 87 0.0 0.0 0.00 0.00 0.00 91
20260905114029 15 87 0.0 0.0 0.00 0.00 0.00 91
20260905113827 15 87 0.0 0.0 0.00 0.00 0.00 91
20260905113625 15 87 0.0 0.0 0.00 0.00 0.00 91
20260905113424 15 87 0.0 0.0 0.00 0.00 0.00 91
20260905113221 15 87 0.0 0.0 0.00 0.00 0.00 91
20260905112817 15 87 0.0 0.0 0.00 0.00 0.00 91
20260905112618 15 87 0.0 0.0 0.00 0.00 0.00 91
20260905112413 15 87 0.0 0.0 0.00 0.00 0.00 91
20260905112212 15 87 0.0 0.0 0.00 0.00 0.00 91
20260905112010 15 87 0.0 0.0 0.00 0.00 0.00 91
20260905111808 15 87 0.0 0.0 0.00 0.00 0.00 91
20260905111606 15 87 0.0 0.0 0.00 0.00 0.00 91
20260905111404 15 87 0.0 0.0 0.00 0.00 0.00 91
20260905111202 15 87 0.0 0.0 0.00 0.00 0.00 91
20260905111000 15 87 0.0 0.0 0.00 0.00 0.00 91
20260905110758 15 87 0.0 0.0 0.00 0.00 0.00 91
20260905110556 15 87 0.0 0.0 0.00 0.00 0.00 91
20260905110354 15 87 0.0 0.0 0.00 0.00 0.00 91
20260905110152 15 87 0.0 0.0 0.00 0.00 0.00 91
20260905105951 15 87 0.0 0.0 0.00 0.00 0.00 91
20260905105749 15 87 0.0 0.0 0.00 0.00 0.00 91
20260905105547 15 87 0.0 0.0 0.00 0.00 0.00 91
20260905105345 15 87 0.0 0.0 0.00 0.00 0.00 91
20260905105145 15 87 0.0 0.0 0.00 0.00 0.00 91
20260905104941 15 87 0.0 0.0 0.00 0.00 0.00 91
20260905104739 15 87 0.0 0.0 0.00 0.00 0.00 91
20260905104539 15 87 0.0 0.0 0.00 0.00 0.00 91
20260905104335 15 87 0.0 0.0 0.00 0.00 0.00 91
20260905104133 15 87 0.0 0.0 0.00 0.00 0.00 91
20260905103932 15 87 0.0 0.0 0.00 0.00 0.00 91
20260905103730 15 87 0.0 0.0 0.00 0.00 0.00 91
20260905103528 15 87 0.0 0.0 0.00 0.00 0.00 91
20260905103326 15 87 0.0 0.0 0.00 0.00 0.00 91
20260905103124 15 87 0.0 0.0 0.00 0.00 0.00 91
20260905102922 15 87 0.0 0.0 0.00 0.00 0.00 91
20260905102720 15 87 0.0 0.0 0.00 0.00 0.00 91
20260905102518 15 87 0.0 0.0 0.00 0.00 0.00 91
20260905102316 15 87 0.0 0.0 0.00 0.00 0.00 91
20260905102114 15 87 0.0 0.0 0.00 0.00 0.00 91
20260905101912 15 87 0.0 0.0 0.00 0.00 0.00 91
20260905101711 15 87 0.0 0.0 0.00 0.00 0.00 91
20260905101509 15 87 0.0 0.0 0.00 0.00 0.00 92
20260905101307 15 87 0.0 0.0 0.00 0.00 0.00 92
20260905101105 15 87 0.0 0.0 0.00 0.00 0.00 92
20260905100903 15 87 0.0 0.0 0.00 0.00 0.00 92
20260905100701 15 87 0.0 0.0 0.00 0.00 0.00 92
20260905100459 15 87 0.0 0.0 0.00 0.00 0.00 92
20260905100257 15 87 0.0 0.0 0.00 0.00 0.00 91
20260905100055 15 87 0.0 0.0 0.00 0.00 0.00 92
20260905095853 15 87 0.0 0.0 0.00 0.00 0.00 92
20260905095651 15 87 0.0 0.0 0.00 0.00 0.00 92
20260905095450 15 87 0.0 0.0 0.00 0.00 0.00 92
20260905095248 15 87 0.0 0.0 0.00 0.00 0.00 92
20260905095046 15 87 0.0 0.0 0.00 0.00 0.00 92
20260905094844 15 87 0.0 0.0 0.00 0.00 0.00 92
20260905094642 15 87 0.0 0.0 0.00 0.00 0.00 92
20260905094440 15 87 0.0 0.0 0.00 0.00 0.00 92
20260905094238 15 87 0.0 0.0 0.00 0.00 0.00 92
20260905094036 15 87 0.0 0.0 0.00 0.00 0.00 92
20260905093834 15 87 0.0 0.0 0.00 0.00 0.00 92
20260905093632 15 87 0.0 1.6 0.00 0.00 0.00 92
20260905093431 15 87 0.0 1.6 0.00 0.00 0.00 91
20260905093229 15 87 0.0 4.8 0.00 0.00 0.00 91
20260905093027 15 87 0.0 4.8 0.00 0.00 0.00 91
20260905092825 15 67 0.0 4.8 0.00 0.00 0.00 92
20260905092623 15 82 0.0 3.2 0.00 0.00 0.00 92
20260905092421 15 82 0.0 3.2 0.00 0.00 0.00 92
20260905092219 15 95 1.6 4.8 0.00 0.00 0.00 91
20260905092017 15 80 0.0 4.8 0.00 0.00 0.00 91
20260905091815 15 80 0.0 4.8 0.00 0.00 0.00 90
20260905091613 15 80 0.0 0.0 0.00 0.00 0.00 90
20260905091248 15 59 0.0 0.0 0.00 0.00 0.00 90
20260905091210 15 59 0.0 0.0 0.00 0.00 0.00 90
20260905091008 16 59 0.0 0.0 0.00 0.00 0.00 90
20260905090806 16 59 0.0 0.0 0.00 0.00 0.00 91
20260905090604 16 59 0.0 0.0 0.00 0.00 0.00 91
20260905090402 16 59 0.0 0.0 0.00 0.00 0.00 91
20260905090200 16 59 0.0 0.0 0.00 0.00 0.00 91
20260905085958 16 59 0.0 0.0 0.00 0.00 0.00 91
20260905085756 16 59 0.0 0.0 0.00 0.00 0.00 91
20260905085554 16 59 0.0 0.0 0.00 0.00 0.00 91
20260905085353 16 59 0.0 0.0 0.00 0.00 0.00 91
20260905085151 16 59 0.0 0.0 0.00 0.00 0.00 91
20260905084949 15 59 0.0 0.0 0.00 0.00 0.00 91
20260905084747 15 59 0.0 0.0 0.00 0.00 0.00 91
20260905084343 15 59 0.0 0.0 0.00 0.00 0.00 91
20260905084141 15 59 0.0 0.0 0.00 0.00 0.00 90
20260905083939 15 59 0.0 0.0 0.00 0.00 0.00 90
20260905083737 15 59 0.0 3.2 0.00 0.00 0.00 90
20260905083536 15 59 0.0 3.2 0.00 0.00 0.00 90
20260905083333 15 59 0.0 3.2 0.00 0.00 0.00 90
20260905083132 15 109 1.6 0.0 0.00 0.00 0.00 89
20260905082728 16 71 0.0 0.0 0.00 0.00 0.00 90
20260905082324 16 71 0.0 0.0 0.00 0.00 0.00 90
20260905082122 15 71 0.0 1.6 0.00 0.00 0.00 90
20260905081920 15 71 0.0 1.6 0.00 0.00 0.00 90
20260905081718 15 71 0.0 1.6 0.00 0.00 0.00 89
20260905081516 16 78 0.0 1.6 0.00 0.00 0.00 89
20260905081314 16 109 1.6 1.6 0.00 0.00 0.00 89
20260905081113 16 88 0.0 0.0 0.00 0.00 0.00 89
20260905080911 16 267 0.0 0.0 0.00 0.00 0.00 89
20260905080709 16 267 0.0 0.0 0.00 0.00 0.00 89
20260905080344 16 267 0.0 0.0 0.00 0.00 0.00 89
20260905080305 16 267 0.0 0.0 0.00 0.00 0.00 89
20260905075901 16 267 0.0 0.0 0.00 0.00 0.00 89
20260905075659 16 267 0.0 0.0 0.00 0.00 0.00 89
20260905075457 16 267 0.0 0.0 0.00 0.00 0.00 89
20260905075255 16 267 0.0 0.0 0.00 0.00 0.00 89
20260905075056 16 267 0.0 0.0 0.00 0.00 0.00 89
20260905074852 16 267 0.0 0.0 0.00 0.00 0.00 89
20260905074651 16 267 0.0 0.0 0.00 0.00 0.00 89
20260905074448 16 267 0.0 0.0 0.00 0.00 0.00 88
20260905074248 16 267 0.0 0.0 0.00 0.00 0.00 88
20260905074044 16 267 0.0 0.0 0.00 0.00 0.00 88
20260905073642 16 267 0.0 0.0 0.00 0.00 0.00 88
20260905073440 16 267 0.0 0.0 0.00 0.00 0.00 88
20260905073236 16 267 0.0 0.0 0.00 0.00 0.00 88
20260905073035 16 267 0.0 0.0 0.00 0.00 0.00 88
20260905072833 16 267 0.0 0.0 0.00 0.00 0.00 88
20260905072631 16 267 0.0 0.0 0.00 0.00 0.00 88
20260905072429 16 267 0.0 0.0 0.00 0.00 0.00 88
20260905072227 16 267 0.0 0.0 0.00 0.00 0.00 88
20260905072025 16 267 0.0 0.0 0.00 0.00 0.00 88
20260905071823 16 267 0.0 0.0 0.00 0.00 0.00 88
20260905071621 16 267 0.0 0.0 0.00 0.00 0.00 88
20260905071217 16 267 0.0 0.0 0.00 0.00 0.00 87
20260905071015 16 267 0.0 0.0 0.00 0.00 0.00 87
20260905070814 16 267 0.0 0.0 0.00 0.00 0.00 87
20260905070612 16 267 0.0 0.0 0.00 0.00 0.00 87
20260905070410 16 267 0.0 0.0 0.00 0.00 0.00 87
20260905070242 16 267 0.0 0.0 0.00 0.00 0.00 87
20260905070210 16 267 0.0 0.0 0.00 0.00 0.00 87
20260905065804 16 267 0.0 0.0 0.00 0.00 0.00 87
20260905065602 16 267 0.0 0.0 0.00 0.00 0.00 87
20260905065400 16 267 0.0 0.0 0.00 0.00 0.00 87
20260905065158 16 267 0.0 0.0 0.00 0.00 0.00 87
20260905064755 16 267 0.0 0.0 0.00 0.00 0.00 87
20260905064553 16 267 0.0 0.0 0.00 0.00 0.00 86
20260905064351 16 267 0.0 0.0 0.00 0.00 0.00 86
20260905064151 16 267 0.0 0.0 0.00 0.00 0.00 86
20260905063947 16 267 0.0 0.0 0.00 0.00 0.00 86
20260905063745 17 267 0.0 0.0 0.00 0.00 0.00 86
20260905063543 17 267 0.0 0.0 0.00 0.00 0.00 86
20260905063341 17 267 0.0 0.0 0.00 0.00 0.00 86
20260905063141 17 267 0.0 0.0 0.00 0.00 0.00 86
20260905062937 17 267 0.0 0.0 0.00 0.00 0.00 86
20260905062735 17 267 0.0 0.0 0.00 0.00 0.00 86
20260905062536 17 267 0.0 0.0 0.00 0.00 0.00 86
20260905062333 17 267 0.0 0.0 0.00 0.00 0.00 86
20260905062130 17 267 0.0 0.0 0.00 0.00 0.00 86
20260905061928 17 267 0.0 0.0 0.00 0.00 0.00 85
20260905061726 17 267 0.0 0.0 0.00 0.00 0.00 85
20260905061525 17 267 0.0 0.0 0.00 0.00 0.00 85
20260905061323 17 267 0.0 0.0 0.00 0.00 0.00 85
20260905061120 17 267 0.0 0.0 0.00 0.00 0.00 85
20260905060918 17 267 0.0 0.0 0.00 0.00 0.00 85
20260905060716 17 267 0.0 0.0 0.00 0.00 0.00 85
20260905060516 17 267 0.0 0.0 0.00 0.00 0.00 85
20260905060111 17 267 0.0 0.0 0.00 0.00 0.00 85
20260905055909 17 267 0.0 0.0 0.00 0.00 0.00 85
20260905055505 17 267 0.0 0.0 0.00 0.00 0.00 85
20260905055306 17 267 0.0 0.0 0.00 0.00 0.00 85
20260905054901 17 267 0.0 0.0 0.00 0.00 0.00 85
20260905054657 17 267 0.0 0.0 0.00 0.00 0.00 85
20260905054457 17 267 0.0 0.0 0.00 0.00 0.00 85
20260905054253 17 267 0.0 0.0 0.00 0.00 0.00 85
20260905054052 17 267 0.0 0.0 0.00 0.00 0.00 85
20260905053850 17 267 0.0 0.0 0.00 0.00 0.00 85
20260905053244 17 267 0.0 0.0 0.00 0.00 0.00 85
20260905053042 18 267 0.0 0.0 0.00 0.00 0.00 85
20260905052840 18 267 0.0 0.0 0.00 0.00 0.00 85
20260905052638 18 267 0.0 0.0 0.00 0.00 0.00 85
20260905052436 18 267 0.0 0.0 0.00 0.00 0.00 84
20260905052234 18 267 0.0 0.0 0.00 0.00 0.00 84
20260905052034 18 267 0.0 0.0 0.00 0.00 0.00 84
20260905051831 18 267 0.0 0.0 0.00 0.00 0.00 84
20260905051630 18 267 0.0 0.0 0.00 0.00 0.00 84
20260905051429 18 267 0.0 0.0 0.00 0.00 0.00 83
20260905051228 18 267 0.0 0.0 0.00 0.00 0.00 83
20260905051023 18 267 0.0 0.0 0.00 0.00 0.00 83
20260905050821 18 267 0.0 0.0 0.00 0.00 0.00 83
20260905050619 18 267 0.0 0.0 0.00 0.00 0.00 83
20260905050417 18 267 0.0 0.0 0.00 0.00 0.00 83
20260905050215 18 267 0.0 0.0 0.00 0.00 0.00 82
20260905050014 18 267 0.0 0.0 0.00 0.00 0.00 82
20260905045610 18 267 0.0 0.0 0.00 0.00 0.00 82
20260905045408 18 267 0.0 0.0 0.00 0.00 0.00 82
20260905045206 18 267 0.0 0.0 0.00 0.00 0.00 82
20260905044600 18 267 0.0 0.0 0.00 0.00 0.00 82
20260905044358 18 267 0.0 0.0 0.00 0.00 0.00 82
20260905044156 18 267 0.0 0.0 0.00 0.00 0.00 82
20260905043954 18 267 0.0 0.0 0.00 0.00 0.00 82
20260905043752 18 267 0.0 0.0 0.00 0.00 0.00 82
20260905043551 18 267 0.0 0.0 0.00 0.00 0.00 82
20260905043349 18 267 0.0 0.0 0.00 0.00 0.00 82
20260905043147 19 267 0.0 0.0 0.00 0.00 0.00 82
20260905042945 18 267 0.0 0.0 0.00 0.00 0.00 82
20260905042743 19 267 0.0 0.0 0.00 0.00 0.00 82
20260905042541 19 267 0.0 0.0 0.00 0.00 0.00 82
20260905042339 19 267 0.0 0.0 0.00 0.00 0.00 82
20260905041935 19 267 0.0 0.0 0.00 0.00 0.00 82
20260905041733 19 267 0.0 0.0 0.00 0.00 0.00 81
20260905041330 19 267 0.0 0.0 0.00 0.00 0.00 81
20260905041129 19 267 0.0 0.0 0.00 0.00 0.00 82
20260905040926 19 267 0.0 0.0 0.00 0.00 0.00 82
20260905040725 19 267 0.0 0.0 0.00 0.00 0.00 82
20260905040522 19 267 0.0 0.0 0.00 0.00 0.00 81
20260905040118 20 267 0.0 0.0 0.00 0.00 0.00 81
20260905035916 20 267 0.0 0.0 0.00 0.00 0.00 81
20260905035714 20 267 0.0 0.0 0.00 0.00 0.00 81
20260905035512 20 267 0.0 0.0 0.00 0.00 0.00 81
20260905035311 20 267 0.0 0.0 0.00 0.00 0.00 81
20260905035109 20 267 0.0 0.0 0.00 0.00 0.00 80
20260905034907 20 267 0.0 0.0 0.00 0.00 0.00 80
20260905034705 20 267 0.0 3.2 0.00 0.00 0.00 80
20260905034505 20 267 0.0 3.2 0.00 0.00 0.00 80
20260905034306 20 267 0.0 3.2 0.00 0.00 0.00 80
20260905034301 20 267 0.0 3.2 0.00 0.00 0.00 80
20260905034059 20 267 0.0 3.2 0.00 0.00 0.00 80
20260905033857 20 279 1.6 3.2 0.00 0.00 0.00 80
20260905033655 20 282 1.6 1.6 0.00 0.00 0.00 80
20260905033453 20 260 0.0 1.6 0.00 0.00 0.00 79
20260905033252 20 260 0.0 1.6 0.00 0.00 0.00 79
20260905033050 20 275 0.0 4.8 0.00 0.00 0.00 79
20260905032848 20 275 0.0 4.8 0.00 0.00 0.00 79
20260905032444 20 275 0.0 4.8 0.00 0.00 0.00 79
20260905032242 20 299 1.6 4.8 0.00 0.00 0.00 79
20260905032040 20 292 4.8 4.8 0.00 0.00 0.00 79
20260905031838 20 300 3.2 4.8 0.00 0.00 0.00 78
20260905031636 20 305 3.2 8.0 0.00 0.00 0.00 78
20260905031434 20 289 1.6 8.0 0.00 0.00 0.00 78
20260905031232 20 284 3.2 9.7 0.00 0.00 0.00 78
20260905031031 20 279 4.8 9.7 0.00 0.00 0.00 78
20260905030949 20 281 3.2 9.7 0.00 0.00 0.00 77
20260905030829 20 281 3.2 9.7 0.00 0.00 0.00 77
20260905030627 20 295 4.8 8.0 0.00 0.00 0.00 77
20260905030425 20 295 6.4 8.0 0.00 0.00 0.00 77
20260905030223 20 302 3.2 8.0 0.00 0.00 0.00 77
20260905030021 20 274 6.4 8.0 0.00 0.00 0.00 76
20260905025819 20 288 4.8 8.0 0.00 0.00 0.00 76
20260905025740 20 292 6.4 9.7 0.00 0.00 0.00 75
20260905025617 20 288 4.8 9.7 0.00 0.00 0.00 76
20260905025415 20 292 6.4 9.7 0.00 0.00 0.00 75
20260905025213 20 289 6.4 6.4 0.00 0.00 0.00 75
20260905025011 20 281 4.8 6.4 0.00 0.00 0.00 75
20260905024809 21 289 6.4 6.4 0.00 0.00 0.00 74
20260905024607 21 286 3.2 8.0 0.00 0.00 0.00 74
20260905024405 21 286 6.4 8.0 0.00 0.00 0.00 73
20260905024203 21 295 4.8 8.0 0.00 0.00 0.00 73
20260905023759 21 281 3.2 8.0 0.00 0.00 0.00 72
20260905023557 21 279 3.2 4.8 0.00 0.00 0.00 71
20260905023356 21 278 3.2 4.8 0.00 0.00 0.00 70
20260905023154 21 279 0.0 11.3 0.00 0.00 0.00 70
20260905022952 21 240 1.6 11.3 0.00 0.00 0.00 70
20260905022548 21 272 1.6 12.9 0.00 0.00 0.00 69
20260905022345 21 271 6.4 12.9 0.00 0.00 0.00 69
20260905022143 21 291 3.2 11.3 0.00 0.00 0.00 69
20260905021941 21 271 8.0 11.3 0.00 0.00 0.00 69
20260905021740 21 260 9.7 11.3 0.00 0.00 0.00 68
20260905021538 22 260 4.8 11.3 0.00 0.00 0.00 67
20260905021336 22 286 3.2 11.3 0.00 0.00 0.00 67
20260905021134 22 264 9.7 11.3 0.00 0.00 0.00 67
20260905020932 22 282 6.4 11.3 0.00 0.00 0.00 67
20260905020530 22 295 6.4 12.9 0.00 0.00 0.00 66
20260905020125 22 291 4.8 16.1 0.00 0.00 0.00 65
20260905015923 22 281 8.0 16.1 0.00 0.00 0.00 65
20260905015720 22 258 16.1 14.5 0.00 0.00 0.00 65
20260905015519 22 274 12.9 14.5 0.00 0.00 0.00 65
20260905015316 22 272 11.3 14.5 0.00 0.00 0.00 64
20260905015114 22 262 6.4 16.1 0.00 0.00 0.00 65
20260905014912 22 291 8.0 16.1 0.00 0.00 0.00 65
20260905014710 22 270 8.0 16.1 0.00 0.00 0.00 65
20260905014306 23 265 12.9 16.1 0.00 0.00 0.00 63
20260905014106 23 281 8.0 12.9 0.00 0.00 0.00 63
20260905013904 23 275 11.3 12.9 0.00 0.00 0.00 63
20260905013500 23 281 9.7 17.7 0.00 0.00 0.00 63
20260905013258 23 254 9.7 17.7 0.00 0.00 0.00 62
20260905013056 23 279 17.7 16.1 0.00 0.00 0.00 62
20260905012854 23 258 8.0 16.1 0.00 0.00 0.00 62
20260905012651 23 254 9.7 16.1 0.00 0.00 0.00 62
20260905012451 23 267 14.5 16.1 0.00 0.00 0.00 62
20260905011843 23 268 9.7 14.5 0.00 0.00 0.00 62
20260905011641 23 248 4.8 17.7 0.00 0.00 0.00 62
20260905011035 23 275 11.3 17.7 0.00 0.00 0.00 62
20260905010835 23 216 1.6 17.7 0.00 0.00 0.00 63
20260905010631 23 267 8.0 17.7 0.00 0.00 0.00 63
20260905010429 23 226 8.0 17.7 0.00 0.00 0.00 63
20260905010025 23 250 9.7 16.1 0.00 0.00 0.00 62
20260905005823 23 264 6.4 16.1 0.00 0.00 0.00 62
20260905005623 23 240 6.4 17.7 0.00 0.00 0.00 62
20260905005217 23 272 12.9 17.7 0.00 0.00 0.00 62
20260905005015 23 281 6.4 17.7 0.00 0.00 0.00 62
20260905004813 23 277 4.8 17.7 0.00 0.00 0.00 62
20260905004613 23 274 11.3 22.5 0.00 0.00 0.00 62
20260905004409 23 250 8.0 22.5 0.00 0.00 0.00 62
20260905004207 24 265 16.1 12.9 0.00 0.00 0.00 61
20260905003805 24 292 12.9 12.9 0.00 0.00 0.00 60
20260905003601 24 189 1.6 17.7 0.00 0.00 0.00 60
20260905003401 24 253 4.8 17.7 0.00 0.00 0.00 60
20260905003158 24 284 8.0 24.1 0.00 0.00 0.00 61
20260905002956 24 244 1.6 24.1 0.00 0.00 0.00 60
20260905002754 24 226 4.8 24.1 0.00 0.00 0.00 60
20260905002553 24 255 11.3 19.3 0.00 0.00 0.00 61
20260905002350 24 264 12.9 19.3 0.00 0.00 0.00 60
20260905002148 24 247 11.3 20.9 0.00 0.00 0.00 60
20260905001948 24 268 9.7 20.9 0.00 0.00 0.00 60
20260905001744 24 247 9.7 22.5 0.00 0.00 0.00 60
20260905001542 24 296 6.4 22.5 0.00 0.00 0.00 61
20260905001342 24 246 11.3 22.5 0.00 0.00 0.00 61
20260905001138 24 270 12.9 20.9 0.00 0.00 0.00 60
20260905000937 24 255 9.7 20.9 0.00 0.00 0.00 60
20260905000735 24 270 17.7 22.5 0.00 0.00 0.00 59
20260905000533 25 271 6.4 22.5 0.00 0.00 0.00 58
20260905000332 25 254 8.0 22.5 0.00 0.00 0.00 59
20260905000128 25 244 14.5 22.5 0.00 0.00 0.00 58
20260904235927 25 272 11.3 22.5 0.00 0.00 0.00 59
20260904235724 25 265 6.4 20.9 0.00 0.00 0.00 58
20260904235524 25 258 19.3 20.9 0.00 0.00 0.00 56
20260904235322 25 272 6.4 20.9 0.00 0.00 0.00 58
20260904235118 25 250 20.9 17.7 0.00 0.00 0.00 57
20260904234916 25 302 9.7 17.7 0.00 0.00 0.00 57
20260904234514 25 250 16.1 20.9 0.00 0.00 0.00 57
20260904234312 25 250 1.6 20.9 0.00 0.00 0.00 56
20260904234110 25 261 11.3 20.9 0.00 0.00 0.00 57
20260904233907 25 265 12.9 20.9 0.00 0.00 0.00 57
20260904233505 25 225 12.9 17.7 0.00 0.00 0.00 56
20260904233342 25 271 8.0 17.7 0.00 0.00 0.00 55
20260904233302 25 271 8.0 17.7 0.00 0.00 0.00 55
20260904233100 25 253 11.3 24.1 0.00 0.00 0.00 56
20260904232858 25 161 1.6 24.1 0.00 0.00 0.00 56
20260904232655 25 262 16.1 20.9 0.00 0.00 0.00 55
20260904232454 25 275 6.4 20.9 0.00 0.00 0.00 54
20260904232050 25 270 9.7 20.9 0.00 0.00 0.00 54
20260904231847 25 260 12.9 20.9 0.00 0.00 0.00 51
20260904231645 25 281 6.4 29.0 0.00 0.00 0.00 54
20260904231445 25 260 8.0 29.0 0.00 0.00 0.00 53
20260904231243 25 255 8.0 25.7 0.00 0.00 0.00 54
20260904231041 25 300 12.9 25.7 0.00 0.00 0.00 54
20260904230837 25 255 11.3 25.7 0.00 0.00 0.00 54
20260904230635 25 253 24.1 25.7 0.00 0.00 0.00 54
20260904230435 25 288 8.0 25.7 0.00 0.00 0.00 52
20260904230233 25 255 11.3 24.1 0.00 0.00 0.00 53
20260904230029 25 262 16.1 24.1 0.00 0.00 0.00 54
20260904225829 25 268 19.3 24.1 0.00 0.00 0.00 53
20260904225625 25 239 16.1 25.7 0.00 0.00 0.00 54
20260904225425 25 277 12.9 25.7 0.00 0.00 0.00 53
20260904225021 25 246 12.9 25.7 0.00 0.00 0.00 54
20260904224819 25 265 14.5 25.7 0.00 0.00 0.00 54
20260904224615 25 248 12.9 29.0 0.00 0.00 0.00 53
20260904224415 25 255 17.7 29.0 0.00 0.00 0.00 55
20260904224213 25 265 14.5 30.6 0.00 0.00 0.00 56
20260904224009 25 257 20.9 30.6 0.00 0.00 0.00 57
20260904223809 25 282 16.1 30.6 0.00 0.00 0.00 56
20260904223607 25 253 17.7 29.0 0.00 0.00 0.00 55
20260904223404 25 274 22.5 29.0 0.00 0.00 0.00 56
20260904223204 25 241 17.7 30.6 0.00 0.00 0.00 56
20260904223000 25 254 16.1 30.6 0.00 0.00 0.00 57
20260904222800 25 275 24.1 30.6 0.00 0.00 0.00 57
20260904222556 25 262 29.0 24.1 0.00 0.00 0.00 57
20260904222355 25 296 17.7 24.1 0.00 0.00 0.00 56
20260904222153 25 267 17.7 27.4 0.00 0.00 0.00 54
20260904221952 25 293 6.4 27.4 0.00 0.00 0.00 55
20260904221750 25 260 11.3 27.4 0.00 0.00 0.00 55
20260904221548 25 267 16.1 24.1 0.00 0.00 0.00 56
20260904221346 26 270 16.1 24.1 0.00 0.00 0.00 55
20260904221144 26 253 20.9 27.4 0.00 0.00 0.00 54
20260904220941 26 232 16.1 27.4 0.00 0.00 0.00 55
20260904220740 26 277 19.3 22.5 0.00 0.00 0.00 55
20260904220538 25 244 17.7 22.5 0.00 0.00 0.00 55
20260904220334 26 272 17.7 22.5 0.00 0.00 0.00 55
20260904220132 26 258 17.7 29.0 0.00 0.00 0.00 55
20260904215124 25 262 20.9 25.7 0.00 0.00 0.00 55
20260904214922 26 264 14.5 25.7 0.00 0.00 0.00 55
20260904214719 26 247 16.1 27.4 0.00 0.00 0.00 54
20260904214517 26 268 16.1 27.4 0.00 0.00 0.00 53
20260904214316 26 246 14.5 27.4 0.00 0.00 0.00 53
20260904214113 26 272 17.7 25.7 0.00 0.00 0.00 53
20260904213912 26 250 16.1 25.7 0.00 0.00 0.00 53
20260904213710 26 260 17.7 27.4 0.00 0.00 0.00 52
20260904213306 26 241 12.9 27.4 0.00 0.00 0.00 52
20260904213104 26 247 17.7 25.7 0.00 0.00 0.00 51
20260904212902 26 254 14.5 25.7 0.00 0.00 0.00 51
20260904212701 26 240 14.5 24.1 0.00 0.00 0.00 51
20260904212458 26 262 16.1 24.1 0.00 0.00 0.00 49
20260904212257 27 272 4.8 24.1 0.00 0.00 0.00 49
20260904211852 27 274 11.3 25.7 0.00 0.00 0.00 50
20260904211651 27 262 22.5 20.9 0.00 0.00 0.00 49
20260904211449 27 279 11.3 20.9 0.00 0.00 0.00 49
20260904211247 27 261 25.7 20.9 0.00 0.00 0.00 48
20260904211045 27 268 9.7 27.4 0.00 0.00 0.00 47
20260904210843 27 157 1.6 27.4 0.00 0.00 0.00 48
20260904210237 27 271 17.7 25.7 0.00 0.00 0.00 48
20260904210035 27 234 16.1 25.7 0.00 0.00 0.00 46
20260904205834 27 268 11.3 25.7 0.00 0.00 0.00 46
20260904205429 27 262 11.3 25.7 0.00 0.00 0.00 45
20260904205227 27 271 6.4 27.4 0.00 0.00 0.00 45
20260904205025 27 247 9.7 27.4 0.00 0.00 0.00 46
20260904204824 27 271 14.5 27.4 0.00 0.00 0.00 44
20260904204622 27 254 11.3 24.1 0.00 0.00 0.00 45
20260904204420 27 272 9.7 24.1 0.00 0.00 0.00 45
20260904204217 27 286 9.7 19.3 0.00 0.00 0.00 45
20260904204016 27 244 3.2 19.3 0.00 0.00 0.00 45
20260904203814 27 279 9.7 19.3 0.00 0.00 0.00 44
20260904203612 27 268 12.9 22.5 0.00 0.00 0.00 45
20260904203410 27 300 11.3 22.5 0.00 0.00 0.00 44
20260904203208 27 261 16.1 22.5 0.00 0.00 0.00 43
20260904202804 27 261 16.1 22.5 0.00 0.00 0.00 41
20260904202602 27 285 3.2 20.9 0.00 0.00 0.00 43
20260904202400 27 272 16.1 20.9 0.00 0.00 0.00 43
20260904202158 27 277 14.5 24.1 0.00 0.00 0.00 43
20260904201956 27 277 11.3 24.1 0.00 0.00 0.00 43
20260904201754 27 240 11.3 24.1 0.00 0.00 0.00 43
20260904201553 26 271 16.1 20.9 0.00 0.00 0.00 44
20260904201350 27 289 6.4 20.9 0.00 0.00 0.00 44
20260904201148 26 291 8.0 20.9 0.00 0.00 0.00 44
20260904200946 27 277 14.5 20.9 0.00 0.00 0.00 44
20260904200745 27 285 11.3 20.9 0.00 0.00 0.00 43
20260904200542 27 278 12.9 20.9 0.00 0.00 0.00 43
20260904200339 27 251 11.3 20.9 0.00 0.00 0.00 42
20260904200137 27 291 6.4 14.5 0.00 0.00 0.00 42
20260904195531 27 281 8.0 16.1 0.00 0.00 0.00 40
20260904195329 28 258 8.0 16.1 0.00 0.00 0.00 40
20260904195127 28 320 1.6 8.0 0.00 0.00 0.00 39
20260904194927 28 146 0.0 8.0 0.00 0.00 0.00 39
20260904194725 27 52 0.0 9.7 0.00 0.00 0.00 41
20260904194521 27 171 0.0 9.7 0.00 0.00 0.00 40
20260904194321 27 260 1.6 9.7 0.00 0.00 0.00 39
20260904194119 27 213 4.8 12.9 0.00 0.00 0.00 40
20260904193916 27 156 1.6 12.9 0.00 0.00 0.00 40
20260904193716 27 226 4.8 11.3 0.00 0.00 0.00 41
20260904193513 27 174 1.6 11.3 0.00 0.00 0.00 41
20260904193110 27 205 3.2 8.0 0.00 0.00 0.00 41
20260904192905 27 309 0.0 8.0 0.00 0.00 0.00 41
20260904192705 27 275 6.4 9.7 0.00 0.00 0.00 40
20260904192504 27 306 0.0 9.7 0.00 0.00 0.00 39
20260904192300 27 285 6.4 9.7 0.00 0.00 0.00 39
20260904192058 27 106 0.0 6.4 0.00 0.00 0.00 40
20260904191856 27 284 0.0 6.4 0.00 0.00 0.00 40
20260904191654 27 284 0.0 11.3 0.00 0.00 0.00 41
20260904191453 27 119 0.0 11.3 0.00 0.00 0.00 41
20260904191252 27 143 6.4 11.3 0.00 0.00 0.00 40
20260904191049 27 161 4.8 9.7 0.00 0.00 0.00 40
20260904190847 27 199 8.0 9.7 0.00 0.00 0.00 39
20260904190646 27 156 3.2 4.8 0.00 0.00 0.00 41
20260904190240 27 278 0.0 6.4 0.00 0.00 0.00 43
20260904190040 26 278 0.0 6.4 0.00 0.00 0.00 44
20260904185838 26 59 0.0 6.4 0.00 0.00 0.00 45
20260904185634 26 257 1.6 8.0 0.00 0.00 0.00 46
20260904185432 26 250 0.0 8.0 0.00 0.00 0.00 47
20260904185230 25 195 0.0 12.9 0.00 0.00 0.00 47
20260904185028 25 324 0.0 12.9 0.00 0.00 0.00 48
20260904184828 25 305 3.2 12.9 0.00 0.00 0.00 48
20260904184624 25 261 8.0 8.0 0.00 0.00 0.00 48
20260904184422 25 285 3.2 8.0 0.00 0.00 0.00 49
20260904184222 25 295 1.6 12.9 0.00 0.00 0.00 49
20260904184020 25 257 3.2 12.9 0.00 0.00 0.00 50
20260904183816 25 257 3.2 12.9 0.00 0.00 0.00 49
20260904183614 25 288 6.4 11.3 0.00 0.00 0.00 49
20260904183412 25 316 8.0 11.3 0.00 0.00 0.00 49
20260904183210 25 315 1.6 17.7 0.00 0.00 0.00 49
20260904183010 25 232 3.2 17.7 0.00 0.00 0.00 49
20260904182806 25 233 6.4 17.7 0.00 0.00 0.00 50
20260904182604 25 275 12.9 12.9 0.00 0.00 0.00 52
20260904182403 24 292 0.0 12.9 0.00 0.00 0.00 52
20260904182203 24 324 0.0 11.3 0.00 0.00 0.00 52
20260904182000 24 317 8.0 11.3 0.00 0.00 0.00 52
20260904181759 24 285 8.0 11.3 0.00 0.00 0.00 51
20260904181555 24 320 0.0 12.9 0.00 0.00 0.00 52
20260904181354 24 277 1.6 12.9 0.00 0.00 0.00 52
20260904181151 24 264 6.4 16.1 0.00 0.00 0.00 53
20260904180949 23 286 4.8 16.1 0.00 0.00 0.00 53
20260904180747 23 262 0.0 16.1 0.00 0.00 0.00 54
20260904180545 23 309 4.8 11.3 0.00 0.00 0.00 54
20260904180343 23 277 14.5 11.3 0.00 0.00 0.00 53
20260904180142 23 279 3.2 14.5 0.00 0.00 0.00 54
20260904175939 23 282 8.0 14.5 0.00 0.00 0.00 54
20260904175737 23 268 8.0 12.9 0.00 0.00 0.00 54
20260904175537 24 260 11.3 12.9 0.00 0.00 0.00 54
20260904175335 23 277 8.0 12.9 0.00 0.00 0.00 52
20260904175132 25 265 11.3 8.0 0.00 0.00 0.00 51
20260904174931 25 277 6.4 8.0 0.00 0.00 0.00 52
20260904174729 25 132 1.6 3.2 0.00 0.00 0.00 53
20260904174527 24 46 0.0 3.2 0.00 0.00 0.00 53
20260904174325 24 87 3.2 3.2 0.00 0.00 0.00 54
20260904174123 23 102 0.0 4.8 0.00 0.00 0.00 56
20260904173919 23 239 0.0 4.8 0.00 0.00 0.00 56
20260904173717 23 239 0.0 8.0 0.00 0.00 0.00 56
20260904173517 23 270 0.0 8.0 0.00 0.00 0.00 55
20260904173313 23 295 1.6 8.0 0.00 0.00 0.00 53
20260904173111 23 299 6.4 9.7 0.00 0.00 0.00 52
20260904172909 23 303 3.2 9.7 0.00 0.00 0.00 52
20260904172707 24 309 0.0 11.3 0.00 0.00 0.00 51
20260904172506 23 309 0.0 11.3 0.00 0.00 0.00 52
20260904172305 23 87 6.4 11.3 0.00 0.00 0.00 54
20260904172102 23 135 3.2 9.7 0.00 0.00 0.00 55
20260904171900 23 147 3.2 9.7 0.00 0.00 0.00 55
20260904171658 23 216 3.2 9.7 0.00 0.00 0.00 55
20260904171456 23 156 0.0 9.7 0.00 0.00 0.00 57
20260904171254 23 53 0.0 9.7 0.00 0.00 0.00 57
20260904171052 23 64 1.6 4.8 0.00 0.00 0.00 58
20260904170850 23 71 0.0 4.8 0.00 0.00 0.00 59
20260904170648 23 293 0.0 9.7 0.00 0.00 0.00 57
20260904170446 23 277 1.6 9.7 0.00 0.00 0.00 56
20260904170244 23 112 1.6 8.0 0.00 0.00 0.00 57
20260904170042 23 181 3.2 8.0 0.00 0.00 0.00 57
20260904165842 23 146 4.8 8.0 0.00 0.00 0.00 58
20260904165436 23 172 0.0 9.7 0.00 0.00 0.00 58
20260904165234 22 165 0.0 14.5 0.00 0.00 0.00 60
20260904165032 22 82 4.8 14.5 0.00 0.00 0.00 60
20260904164832 22 92 4.8 14.5 0.00 0.00 0.00 60
20260904164426 22 80 4.8 11.3 0.00 0.00 0.00 60
20260904164224 22 102 8.0 11.3 0.00 0.00 0.00 61
20260904164022 22 90 8.0 11.3 0.00 0.00 0.00 61
20260904163820 22 90 6.4 11.3 0.00 0.00 0.00 61
20260904163618 22 122 3.2 14.5 0.00 0.00 0.00 61
20260904163416 22 140 6.4 14.5 0.00 0.00 0.00 61
20260904163214 22 118 8.0 12.9 0.00 0.00 0.00 61
20260904163012 22 95 11.3 12.9 0.00 0.00 0.00 61
20260904162812 22 112 6.4 12.9 0.00 0.00 0.00 60
20260904162611 22 153 3.2 12.9 0.00 0.00 0.00 62
20260904162407 22 56 0.0 12.9 0.00 0.00 0.00 63
20260904162205 22 36 0.0 12.9 0.00 0.00 0.00 64
20260904162003 22 119 11.3 12.9 0.00 0.00 0.00 63
20260904161801 22 118 8.0 12.9 0.00 0.00 0.00 63
20260904161601 22 163 4.8 11.3 0.00 0.00 0.00 63
20260904161358 22 151 6.4 11.3 0.00 0.00 0.00 63
20260904161157 22 132 6.4 9.7 0.00 0.00 0.00 63
20260904160953 22 109 8.0 9.7 0.00 0.00 0.00 65
20260904160753 22 87 1.6 9.7 0.00 0.00 0.00 66
20260904160551 21 87 1.6 11.3 0.00 0.00 0.00 66
20260904160347 21 132 6.4 11.3 0.00 0.00 0.00 67
20260904160145 21 122 6.4 9.7 0.00 0.00 0.00 67
20260904155948 21 111 6.4 9.7 0.00 0.00 0.00 66
20260904155945 21 111 6.4 9.7 0.00 0.00 0.00 66
20260904155741 21 133 8.0 11.3 0.00 0.00 0.00 66
20260904155337 21 122 6.4 11.3 0.00 0.00 0.00 67
20260904155135 21 151 4.8 11.3 0.00 0.00 0.00 68
20260904154933 21 122 6.4 11.3 0.00 0.00 0.00 69
20260904154733 21 151 4.8 12.9 0.00 0.00 0.00 68
20260904154529 21 137 6.4 12.9 0.00 0.00 0.00 70
20260904154327 21 116 4.8 12.9 0.00 0.00 0.00 70
20260904154125 20 127 4.8 9.7 0.00 0.00 0.00 71
20260904153924 20 150 6.4 9.7 0.00 0.00 0.00 72
20260904153722 20 135 4.8 11.3 0.00 0.00 0.00 72
20260904153520 20 113 6.4 11.3 0.00 0.00 0.00 72
20260904153318 20 135 8.0 11.3 0.00 0.00 0.00 72
20260904153116 20 95 8.0 11.3 0.00 0.00 0.00 73
20260904152914 20 137 4.8 11.3 0.00 0.00 0.00 74
20260904152712 20 132 4.8 11.3 0.00 0.00 0.00 74
20260904152510 20 136 11.3 11.3 0.00 0.00 0.00 75
20260904152308 20 123 4.8 11.3 0.00 0.00 0.00 75
20260904152106 20 111 8.0 9.7 0.00 0.00 0.00 74
20260904151904 20 118 6.4 9.7 0.00 0.00 0.00 75
20260904151703 20 112 6.4 9.7 0.00 0.00 0.00 76
20260904151501 19 116 8.0 9.7 0.00 0.00 0.00 76
20260904151259 19 108 6.4 9.7 0.00 0.00 0.00 76
20260904151057 19 94 8.0 8.0 0.00 0.00 0.00 76
20260904150855 19 101 8.0 8.0 0.00 0.00 0.00 76
20260904150653 18 132 3.2 4.8 0.00 0.00 0.00 77
20260904150451 18 144 1.6 4.8 0.00 0.00 0.00 78
20260904150249 18 112 4.8 4.8 0.00 0.00 0.00 78
20260904150047 18 108 3.2 6.4 0.00 0.00 0.00 79
20260904145845 18 130 3.2 6.4 0.00 0.00 0.00 79
20260904145643 18 129 1.6 4.8 0.00 0.00 0.00 80
20260904145038 17 90 4.8 0.0 0.00 0.00 0.00 81
20260904144432 17 53 0.0 0.0 0.00 0.00 0.00 82
20260904144232 17 53 0.0 0.0 0.00 0.00 0.00 82
20260904144028 17 53 0.0 0.0 0.00 0.00 0.00 83
20260904143826 17 53 0.0 0.0 0.00 0.00 0.00 84
20260904143624 17 53 0.0 0.0 0.00 0.00 0.00 85
20260904143423 17 53 0.0 0.0 0.00 0.00 0.00 86
20260904143019 16 53 0.0 0.0 0.00 0.00 0.00 86
20260904142817 16 53 0.0 0.0 0.00 0.00 0.00 86
20260904142616 16 53 0.0 0.0 0.00 0.00 0.00 87
20260904142413 16 53 0.0 0.0 0.00 0.00 0.00 87
20260904142211 16 53 0.0 0.0 0.00 0.00 0.00 87
20260904142009 16 53 0.0 0.0 0.00 0.00 0.00 87
20260904141807 16 53 0.0 0.0 0.00 0.00 0.00 87
20260904141605 16 53 0.0 0.0 0.00 0.00 0.00 87
20260904141403 16 53 0.0 0.0 0.00 0.00 0.00 87
20260904141202 16 53 0.0 0.0 0.00 0.00 0.00 87
20260904141000 16 53 0.0 0.0 0.00 0.00 0.00 87
20260904140758 16 53 0.0 0.0 0.00 0.00 0.00 87
20260904140556 16 53 0.0 0.0 0.00 0.00 0.00 87
20260904140354 16 53 0.0 0.0 0.00 0.00 0.00 88
20260904140154 16 53 0.0 0.0 0.00 0.00 0.00 88
20260904135952 16 53 0.0 0.0 0.00 0.00 0.00 88
20260904135748 16 53 0.0 0.0 0.00 0.00 0.00 88
20260904135547 16 53 0.0 0.0 0.00 0.00 0.00 88
20260904135344 16 53 0.0 0.0 0.00 0.00 0.00 88
20260904135143 16 53 0.0 1.6 0.00 0.00 0.00 88
20260904134739 16 53 0.0 3.2 0.00 0.00 0.00 88
20260904134335 16 63 0.0 3.2 0.00 0.00 0.00 88
20260904134133 16 57 0.0 3.2 0.00 0.00 0.00 88
20260904133933 16 54 0.0 3.2 0.00 0.00 0.00 88
20260904133731 16 71 1.6 0.0 0.00 0.00 0.00 88
20260904133325 16 42 0.0 0.0 0.00 0.00 0.00 88
20260904132922 16 42 0.0 1.6 0.00 0.00 0.00 88
20260904132720 16 82 0.0 1.6 0.00 0.00 0.00 88
20260904132518 16 82 0.0 1.6 0.00 0.00 0.00 88
20260904132316 16 82 0.0 1.6 0.00 0.00 0.00 88
20260904132114 16 60 0.0 0.0 0.00 0.00 0.00 88
20260904131912 16 60 0.0 0.0 0.00 0.00 0.00 88
20260904131710 16 60 0.0 0.0 0.00 0.00 0.00 88
20260904131508 16 60 0.0 0.0 0.00 0.00 0.00 88
20260904131306 16 60 0.0 0.0 0.00 0.00 0.00 88
20260904131104 16 60 0.0 8.0 0.00 0.00 0.00 88
20260904130903 16 60 0.0 8.0 0.00 0.00 0.00 88
20260904130701 16 60 0.0 8.0 0.00 0.00 0.00 88
20260904130257 16 106 3.2 8.0 0.00 0.00 0.00 88
20260904130055 16 108 6.4 8.0 0.00 0.00 0.00 88
20260904125853 16 75 1.6 8.0 0.00 0.00 0.00 88
20260904125651 15 106 8.0 6.4 0.00 0.00 0.00 88
20260904125449 15 75 3.2 6.4 0.00 0.00 0.00 88
20260904125247 15 104 4.8 6.4 0.00 0.00 0.00 88
20260904125045 15 102 3.2 6.4 0.00 0.00 0.00 87
20260904124844 15 106 4.8 6.4 0.00 0.00 0.00 87
20260904124642 15 112 1.6 6.4 0.00 0.00 0.00 87
20260904124441 15 120 3.2 6.4 0.00 0.00 0.00 87
20260904124238 15 106 4.8 8.0 0.00 0.00 0.00 87
20260904124036 15 113 3.2 8.0 0.00 0.00 0.00 87
20260904123834 15 112 4.8 8.0 0.00 0.00 0.00 88
20260904123632 15 99 6.4 6.4 0.00 0.00 0.00 88
20260904123430 15 102 4.8 6.4 0.00 0.00 0.00 88
20260904123228 15 97 1.6 0.0 0.00 0.00 0.00 88
20260904123026 15 113 4.8 0.0 0.00 0.00 0.00 88
20260904122824 15 175 0.0 0.0 0.00 0.00 0.00 87
20260904122623 15 175 0.0 0.0 0.00 0.00 0.00 87
20260904122422 15 175 0.0 0.0 0.00 0.00 0.00 88
20260904122219 15 175 0.0 0.0 0.00 0.00 0.00 88
20260904122017 15 175 0.0 0.0 0.00 0.00 0.00 88
20260904121816 15 175 0.0 0.0 0.00 0.00 0.00 88
20260904121613 15 175 0.0 0.0 0.00 0.00 0.00 88
20260904121411 15 175 0.0 0.0 0.00 0.00 0.00 88
20260904121209 15 175 0.0 0.0 0.00 0.00 0.00 88
20260904120805 15 175 0.0 0.0 0.00 0.00 0.00 88
20260904120605 15 175 0.0 0.0 0.00 0.00 0.00 88
20260904120402 15 175 0.0 0.0 0.00 0.00 0.00 88
20260904120200 15 175 0.0 0.0 0.00 0.00 0.00 88
20260904115958 15 175 0.0 0.0 0.00 0.00 0.00 88
20260904115556 15 175 0.0 0.0 0.00 0.00 0.00 88
20260904115352 15 175 0.0 0.0 0.00 0.00 0.00 88